Location: Hylo
(54.6785°N, 112.2142°W)
Time: 14:09:31
(UTC+00:00)

ACS3 Solar Sail - Pass Details

Date: 27 September 2024
Orbit: 961 x 1035 km, 97.4° (Epoch: 08 October)

Event Time Altitude Azimuth Distance (km) Brightness Sun altitude
Exits shadow 05:12:43 - 226° (SW) 3,209 4.4 -31.2°
Reaches altitude 10° 05:14:07 10° 234° (SW) 2,840 4.2 -31.3°
Maximum altitude 05:18:32 19° 278° (W) 2,240 4.1 -31.7°
Drops below altitude 10° 05:22:59 10° 322° (NW) 2,840 5.1 -32.0°
Sets 05:26:21 0° 340° (NNW) 3,787 5.9 -32.3°
